Hemavan current weather conditions

sailwx.info

Wind from 060 at 0 knots

Air temperature -17.0° C
Visibility: greater than 5.4 NM
Dewpoint -19.0° C

Last reported at 2017-Feb-25 23:20 UTC.
Time now 2017-Feb-26 00:55 UTC

Location: N 65°48' E 015°05'.
View on Google Maps.

See reports from other nearby stations

  
Tides and Currents Weather Stations Pressure Air Temp Water Temp Dewpoint Dewpoint Depression Visibility Wind Speed Wind Dir Waves Ship Positions
date/time (UTC)wind fromknots sea level pressurealtimeterstation pressurevisibilityair tempwater tempwave heightnotes
2017-Feb-25 23:20 060 0 5.4-17.0
2017-Feb-25 22:50 5.4-17.0
2017-Feb-25 22:20 5.4-16.0
2017-Feb-25 21:50 020 1 5.4-16.0
2017-Feb-25 21:20 5.4-16.0
2017-Feb-25 20:50 5.4-16.0
2017-Feb-25 20:20 5.4-16.0
2017-Feb-25 19:50 5.4-16.0 Light snow.
2017-Feb-25 19:20 5.4-14.0
2017-Feb-25 18:50 5.4-14.0
2017-Feb-25 18:20 5.4-13.0
2017-Feb-25 17:50 190 2 5.4-13.0
2017-Feb-25 17:20 5.4-11.0
2017-Feb-25 16:50 5.4-8.0
2017-Feb-25 16:20 080 2 5.4-7.0
2017-Feb-25 15:50 330 6 5.4-5.0
2017-Feb-25 15:20 340 6 5.4-4.0
2017-Feb-25 14:50 310 6 5.4-4.0
2017-Feb-25 14:20 230 7 5.4-3.0
2017-Feb-25 13:50 310 8 5.4-3.0
2017-Feb-25 13:20 300 7 5.4-3.0
2017-Feb-25 12:50 310 11 5.4-3.0
2017-Feb-25 12:20 320 7 5.4-3.0
2017-Feb-25 11:50 320 13 5.4-3.0
2017-Feb-25 11:20 330 11 5.4-3.0
2017-Feb-25 10:50 310 11 5.4-4.0 Light snow.
2017-Feb-25 10:20 300 9 5.4-4.0 Light snow.
2017-Feb-25 09:50 300 6 5.4-4.0
2017-Feb-25 09:20 300 8 5.4-4.0 Snow grains.
2017-Feb-25 08:50 1.8-5.0 Light snow.
2017-Feb-25 08:20 0.9-5.0 Light snow.
2017-Feb-25 07:50 330 4 5.4-5.0 Light snow.
2017-Feb-25 07:20 280 5 4.9-5.0 Snow grains.
2017-Feb-25 06:50 280 5 5.4-5.0
2017-Feb-25 06:20 260 4 5.4-5.0 Snow grains.
2017-Feb-25 05:50 240 6 5.4-6.0
2017-Feb-25 05:20 240 2 5.4-6.0 Light snow.
2017-Feb-25 04:50 5.4-5.0
2017-Feb-25 04:20 270 4 5.4-6.0 Light snow.
2017-Feb-25 03:50 280 6 5.4-6.0
2017-Feb-25 03:20 5.4-6.0
2017-Feb-25 02:50 250 4 5.4-6.0
2017-Feb-25 02:20 260 2 5.4-6.0
2017-Feb-25 01:50 250 5 5.4-5.0 Light snow.
2017-Feb-25 01:20 290 5 5.4-5.0
2017-Feb-25 00:50 320 9 5.4-5.0
2017-Feb-25 00:20 280 8 5.4-6.0
2017-Feb-24 23:50 280 8 3.2-7.0 Light snow.
2017-Feb-24 23:20 290 5 5.4-8.0
2017-Feb-24 22:50 310 6 5.4-7.0
2017-Feb-24 22:20 280 5 5.4-6.0 Snow grains.
2017-Feb-24 21:50 330 4 5.4-7.0 Light snow.
2017-Feb-24 21:20 350 7 5.4-8.0
2017-Feb-24 20:50 350 4 5.4-10.0
2017-Feb-24 20:20 340 6 5.4-9.0
2017-Feb-24 19:50 330 7 5.4-10.0
2017-Feb-24 19:20 310 5 5.4-7.0
2017-Feb-24 18:50 270 2 5.4-7.0
2017-Feb-24 18:20 250 4 5.4-7.0
2017-Feb-24 17:50 280 6 5.4-6.0
2017-Feb-24 17:20 280 8 5.4-6.0
2017-Feb-24 16:50 280 9 5.4-5.0
2017-Feb-24 16:20 300 9 5.4-5.0
2017-Feb-24 15:50 310 9 5.4-6.0
2017-Feb-24 15:20 320 9 5.4-6.0
2017-Feb-24 14:50 330 11 5.4-5.0
2017-Feb-24 14:20 330 9 5.4-4.0
2017-Feb-24 13:50 340 14 5.4-4.0
2017-Feb-24 13:20 340 13 5.4-4.0 Light snow.
2017-Feb-24 12:50 330 14 5.4-4.0
2017-Feb-24 12:20 330 13 5.4-4.0
2017-Feb-24 11:50 330 13 5.4-4.0
2017-Feb-24 11:20 330 15 5.4-4.0
2017-Feb-24 10:50 330 14 5.4-5.0
2017-Feb-24 10:20 330 15 5.4-5.0
2017-Feb-24 09:50 330 15 5.4-5.0
2017-Feb-24 09:20 320 18 4.9-5.0 Snow grains.
2017-Feb-24 08:50 330 13 5.4-5.0 Light snow.
2017-Feb-24 08:20 340 13 5.4-5.0 Light snow.
2017-Feb-24 07:50 350 11 5.4-6.0 Light snow.
2017-Feb-24 07:20 340 11 5.4-6.0
2017-Feb-24 06:50 340 12 5.4-7.0
2017-Feb-24 06:20 340 13 5.4-6.0 Light snow.
2017-Feb-24 05:50 330 9 5.4-7.0 Light snow.
2017-Feb-24 05:20 320 7 5.4-8.0
2017-Feb-24 04:50 330 9 5.4-7.0 Light snow.
2017-Feb-24 04:20 330 9 5.4-7.0 Light snow.
2017-Feb-24 03:50 350 11 5.4-8.0
2017-Feb-24 03:20 5.4-9.0
2017-Feb-24 02:50 340 7 5.4-8.0
2017-Feb-24 02:20 320 5 5.4-8.0
2017-Feb-24 01:50 270 2 5.4-9.0
2017-Feb-24 01:20 300 4 5.4-8.0
2017-Feb-24 00:50 320 6 5.4-8.0
2017-Feb-24 00:20 300 4 5.4-8.0